Location: Wells
(51.2093°N, 2.6446°W)
Time: 04:52:08
(UTC+01:00)

STARS - Pass Details

Date: 17 March 2026
Orbit: 575 x 588 km, 98.2° (Epoch: 17 April)

Event Time Altitude Azimuth Distance (km) Brightness Sun altitude
Rises 04:01:21 0° 360° (N) 2,803 ? -21.9°
Reaches altitude 10° 04:04:30 10° 333° (NNW) 1,897 ? -21.4°
Enters shadow 04:05:15 12° 323° (NW) 1,774 ? -21.3°
